Location: Agua Amarilla
(10.0342°N, 66.8490°W)
Time: 05:00:20
(UTC+00:00)

GPS 2-17 Rocket1 - Pass Details

Date: 26 June 2022
Orbit: 569 x 655 km, 20.3° (Epoch: 18 August)

Event Time Altitude Azimuth Distance (km) Brightness Sun altitude
Rises 23:24:56 0° 249° (WSW) 2,779 7.1 -8.3°
Reaches altitude 10° 23:27:13 10° 248° (WSW) 1,892 6.2 -8.8°
Maximum altitude 23:31:39 83° 162° (SSE) 599 2.9 -9.8°
Drops below altitude 10° 23:36:12 10° 73° (ENE) 1,946 5.2 -10.8°
Enters shadow 23:37:00 - 73° (ENE) 2,253 5.5 -11.0°
